{"data":{"norad_id":69125,"intl_designator":"2026-110B","name":"STARLINK-37722","alt_names":[],"object_type":"PAYLOAD","status":"ACTIVE","operator":null,"country":"US","launch_date":"2026-05-20","launch_site_code":"AFWTR","launch_vehicle":null,"mission":null,"orbit_class":"UNKNOWN","rcs_meters":null,"size_class":null,"mass_kg":null,"dimensions":null,"purposes":["comms"],"wikipedia_slug":null,"has_3d_model":false,"image_url":null,"decayed_at":null,"tle_current":{"epoch":"2026-09-19T23:33:13.468032Z","epoch_age_seconds":68061,"freshness":"FRESH","line1":"1 69125U 26110B   26262.98140588  .00021707  00000+0  67216-3 0  9995","line2":"2 69125  97.2856  97.9993 0000693 119.9549 240.1763 15.33473923 20133","mean_motion":15.33473923,"eccentricity":6.93e-5,"inclination_deg":97.2856,"raan_deg":97.9993,"arg_perigee_deg":119.9549,"mean_anomaly_deg":240.1763,"bstar":0.00067216,"rev_number":2013,"period_min":93.904433482825,"perigee_km":464.98286025916,"apogee_km":465.93138240437,"semimajor_km":6843.5941213318,"source":"CELESTRAK","updated_at":"2026-09-20T09:00:44.063591Z"}}}